Date String (YYYY-MM-DD hh:mm:ss) UTC,Instrument flags,absolute air pressure of the measurement (hPa),sample flow rate (lpm),inlet stack bypass flow (lpm),air temperature of the measurement (°C),ambient temperature measured by the external sensor (°C),aerosol sample conditioner tube jacket temperature (°C),OPC LED temperature (°C),internal box temperature (°C),relative humidity of the measurement (%),span deviation,mass concentration of particles derived from Lorenz-Mie calculation of OPC scattering (μg/m³),mass concentration of particles derived from Lorenz-Mie calculation of OPC scattering (μg/m³),mass concentration of particles derived from Lorenz-Mie calculation of OPC scattering (μg/m³)
DateTimeUTC,F1_M11,P_M11,Q1_M11,Q2_M11,T1_M11,T2_M11,T3_M11,T4_M11,T5_M11,U1_M11,ZSPAN_M11,X0_M11,X2_M11,X1_M11
2024-04-16 22:00:00,SystemResetWarning,0823.0,5.00,000.00,025.3,022.8,000.0,034.3,026.2,013.8,0000.0,0005.24,0002.63,0001.72
2024-04-16 22:01:00,SystemResetWarning,0822.8,5.00,000.00,025.3,023.1,000.0,034.1,026.5,013.8,0000.0,0006.31,0002.60,0001.70
2024-04-16 22:02:00,SystemResetWarning,0823.0,4.99,000.00,025.3,023.5,000.0,034.1,026.8,013.7,0000.0,0007.01,0002.53,0001.69
2024-04-16 22:03:00,SystemResetWarning,0822.9,5.00,000.00,025.3,023.7,000.0,034.0,027.0,014.2,0000.0,0007.05,0002.54,0001.69
2024-04-16 22:04:00,SystemResetWarning,0823.0,5.00,000.00,025.4,024.0,000.0,034.0,027.1,013.8,0000.0,0007.02,0002.53,0001.68
2024-04-16 22:05:00,SystemResetWarning,0823.0,5.00,000.00,025.4,024.2,000.0,034.0,027.2,013.7,0000.0,0006.92,0002.51,0001.66
2024-04-16 22:06:00,SystemResetWarning,0822.8,4.99,000.00,025.5,024.4,000.0,033.9,027.3,013.7,0000.0,0006.79,0002.47,0001.67
2024-04-16 22:07:00,SystemResetWarning,0822.8,4.99,000.00,025.5,024.6,000.0,033.9,027.4,013.8,0000.0,0006.79,0002.46,0001.67
2024-04-16 22:08:00,SystemResetWarning,0822.9,5.00,000.00,025.5,024.7,000.0,033.9,027.4,014.0,0000.0,0006.62,0002.43,0001.67
2024-04-16 22:09:00,SystemResetWarning,0822.9,5.00,000.00,025.6,024.8,000.0,034.0,027.5,014.4,0000.0,0007.07,0002.44,0001.68
2024-04-16 22:10:00,SystemResetWarning,0822.8,5.00,000.00,025.6,024.9,000.0,034.0,027.6,014.1,0000.0,0007.17,0002.43,0001.69
2024-04-16 22:11:00,SystemResetWarning,0822.8,5.01,000.00,025.7,025.0,000.0,034.0,027.6,014.7,0000.0,0007.19,0002.43,0001.70
2024-04-16 22:12:00,SystemResetWarning,0822.9,5.00,000.00,025.7,025.1,000.0,034.0,027.7,014.4,0000.0,0006.45,0002.37,0001.71
2024-04-16 22:13:00,SystemResetWarning,0823.0,5.00,000.00,025.8,025.2,000.0,034.0,027.7,014.2,0000.0,0005.21,0002.33,0001.71
2024-04-16 22:14:00,SystemResetWarning,0822.9,4.99,000.00,025.8,025.2,000.0,034.1,027.8,014.2,0000.0,0005.09,0002.33,0001.71
2024-04-16 22:15:00,SystemResetWarning,0822.9,5.00,000.00,025.9,025.3,000.0,034.1,027.8,013.9,0000.0,0005.21,0002.32,0001.70
2024-04-16 22:16:00,SystemResetWarning,0822.8,5.00,000.00,025.9,025.3,000.0,034.1,027.8,013.5,0000.0,0005.19,0002.31,0001.69
2024-04-16 22:17:00,SystemResetWarning,0822.8,5.01,000.00,025.9,025.4,000.0,034.1,027.9,013.3,0000.0,0005.25,0002.34,0001.69
2024-04-16 22:18:00,SystemResetWarning,0822.9,5.01,000.00,026.0,025.4,000.0,034.2,027.9,013.3,0000.0,0005.13,0002.33,0001.69
2024-04-16 22:19:00,SystemResetWarning,0823.1,5.00,000.00,026.0,025.5,000.0,034.2,027.9,013.4,0000.0,0005.18,0002.34,0001.70
2024-04-16 22:20:00,SystemResetWarning,0823.0,5.00,000.00,026.1,025.5,000.0,034.2,028.0,013.3,0000.0,0005.81,0002.37,0001.69
2024-04-16 22:21:00,SystemResetWarning,0822.8,4.99,000.00,026.1,025.5,000.0,034.2,028.0,013.0,0000.0,0006.19,0002.39,0001.68
2024-04-16 22:22:00,SystemResetWarning,0822.7,4.99,000.00,026.1,025.6,000.0,034.3,028.0,012.8,0000.0,0006.22,0002.40,0001.67
2024-04-16 22:23:00,SystemResetWarning,0822.9,4.98,000.00,026.1,025.0,000.0,034.3,027.7,012.7,0000.0,0006.15,0002.39,0001.66
2024-04-16 22:24:00,SystemResetWarning,0822.7,5.01,000.00,025.7,022.8,000.0,034.4,026.6,013.1,0000.0,0005.78,0002.39,0001.65
2024-04-16 22:25:00,SystemResetWarning,0822.7,5.01,000.00,025.4,022.5,000.0,034.3,026.3,013.0,0000.0,0005.71,0002.38,0001.64
2024-04-16 22:26:00,SystemResetWarning,0822.8,5.00,000.00,025.3,022.8,000.0,034.2,026.4,013.2,0000.0,0005.59,0002.36,0001.63
2024-04-16 22:27:00,SystemResetWarning,0823.0,4.99,000.00,025.3,023.2,000.0,034.1,026.7,014.0,0000.0,0005.41,0002.31,0001.61
2024-04-16 22:28:00,SystemResetWarning,0822.9,4.99,000.00,025.3,023.5,000.0,034.0,026.9,014.7,0000.0,0005.21,0002.22,0001.59
2024-04-16 22:29:00,SystemResetWarning,0822.9,5.01,000.00,025.4,023.8,000.0,034.0,027.0,014.2,0000.0,0005.10,0002.14,0001.55
2024-04-16 22:30:00,SystemResetWarning,0822.9,5.01,000.00,025.4,024.0,000.0,033.9,027.2,014.0,0000.0,0005.07,0002.10,0001.51
2024-04-16 22:31:00,SystemResetWarning,0823.0,5.00,000.00,025.5,024.3,000.0,033.9,027.3,014.9,0000.0,0004.99,0002.01,0001.47
2024-04-16 22:32:00,SystemResetWarning,0822.9,5.00,000.00,025.5,024.5,000.0,033.9,027.3,015.0,0000.0,0003.86,0001.94,0001.42
2024-04-16 22:33:00,SystemResetWarning,0823.0,4.99,000.00,025.5,024.6,000.0,033.9,027.4,015.1,0000.0,0003.54,0001.82,0001.35
2024-04-16 22:34:00,SystemResetWarning,0823.0,5.00,000.00,025.6,024.8,000.0,033.9,027.5,015.2,0000.0,0003.44,0001.75,0001.28
2024-04-16 22:35:00,SystemResetWarning,0822.9,4.99,000.00,025.7,024.9,000.0,034.0,027.5,014.8,0000.0,0003.29,0001.67,0001.21
2024-04-16 22:36:00,SystemResetWarning,0822.9,5.00,000.00,025.7,025.0,000.0,034.0,027.6,014.9,0000.0,0003.15,0001.57,0001.15
2024-04-16 22:37:00,SystemResetWarning,0823.0,5.00,000.00,025.7,025.1,000.0,034.0,027.7,015.2,0000.0,0002.89,0001.47,0001.09
2024-04-16 22:38:00,SystemResetWarning,0822.9,5.00,000.00,025.8,025.2,000.0,034.0,027.7,015.1,0000.0,0002.91,0001.43,0001.03
2024-04-16 22:39:00,SystemResetWarning,0822.9,5.00,000.00,025.8,025.2,000.0,034.0,027.7,014.7,0000.0,0002.93,0001.39,0000.97
2024-04-16 22:40:00,SystemResetWarning,0823.0,4.98,000.00,025.9,025.3,000.0,034.1,027.8,014.6,0000.0,0004.93,0001.30,0000.92
2024-04-16 22:41:00,SystemResetWarning,0822.9,5.00,000.00,025.9,025.3,000.0,034.1,027.8,014.6,0000.0,0005.48,0001.20,0000.86
2024-04-16 22:42:00,SystemResetWarning,0823.1,5.01,000.00,025.9,025.4,000.0,034.1,027.9,013.8,0000.0,0006.59,0001.20,0000.82
2024-04-16 22:43:00,SystemResetWarning,0823.1,5.00,000.00,026.0,025.4,000.0,034.2,027.9,014.8,0000.0,0006.63,0001.19,0000.80
2024-04-16 22:44:00,SystemResetWarning,0823.0,5.00,000.00,026.0,025.5,000.0,034.2,027.9,014.1,0000.0,0006.69,0001.20,0000.80
2024-04-16 22:45:00,SystemResetWarning,0823.1,5.00,000.00,026.1,025.5,000.0,034.2,028.0,014.1,0000.0,0007.81,0001.25,0000.81
2024-04-16 22:46:00,SystemResetWarning,0823.3,5.00,000.00,026.0,024.8,000.0,034.3,027.5,014.4,0000.0,0007.92,0001.27,0000.80
2024-04-16 22:47:00,SystemResetWarning,0823.0,5.00,000.00,025.7,022.8,000.0,034.3,026.4,015.4,0000.0,0007.95,0001.28,0000.80
2024-04-16 22:48:00,SystemResetWarning,0822.9,5.02,000.00,025.4,022.5,000.0,034.3,026.2,015.4,0000.0,0007.99,0001.28,0000.80
2024-04-16 22:49:00,SystemResetWarning,0823.0,5.00,000.00,025.3,022.8,000.0,034.1,026.3,015.5,0000.0,0008.13,0001.30,0000.82
2024-04-16 22:50:00,SystemResetWarning,0823.0,4.99,000.00,025.3,023.2,000.0,034.0,026.6,015.8,0000.0,0008.16,0001.31,0000.82
2024-04-16 22:51:00,SystemResetWarning,0823.0,5.00,000.00,025.3,023.5,000.0,034.0,026.8,015.8,0000.0,0006.93,0001.32,0000.81
2024-04-16 22:52:00,SystemResetWarning,0823.0,5.00,000.00,025.3,023.8,000.0,033.9,027.0,015.6,0000.0,0006.59,0001.36,0000.81
2024-04-16 22:53:00,SystemResetWarning,0823.1,5.00,000.00,025.4,024.0,000.0,033.9,027.1,015.6,0000.0,0004.92,0001.33,0000.82
2024-04-16 22:54:00,SystemResetWarning,0823.1,5.00,000.00,025.4,024.2,000.0,033.9,027.2,015.8,0000.0,0005.85,0001.34,0000.82
2024-04-16 22:55:00,SystemResetWarning,0823.1,5.00,000.00,025.4,024.4,000.0,033.9,027.3,015.6,0000.0,0006.27,0001.39,0000.84
2024-04-16 22:56:00,SystemResetWarning,0823.3,4.99,000.00,025.5,024.6,000.0,033.9,027.4,015.7,0000.0,0005.94,0001.39,0000.84
2024-04-16 22:57:00,SystemResetWarning,0823.4,4.99,000.00,025.5,024.7,000.0,033.9,027.4,015.9,0000.0,0005.56,0001.38,0000.86
2024-04-16 22:58:00,SystemResetWarning,0823.4,5.01,000.00,025.6,024.8,000.0,033.9,027.5,015.6,0000.0,0005.60,0001.43,0000.89
2024-04-16 22:59:00,SystemResetWarning,0823.4,5.00,000.00,025.6,024.9,000.0,033.9,027.5,015.6,0000.0,0005.71,0001.46,0000.89
